Weather History for Defiance, OH

Change the Weather History Date:

Saturday, January 5, 2013

  Actual Average Record
Temperature  
Mean Temperature 25 °F -  
Max Temperature 34 °F 32 °F 58 °F (1939)
Min Temperature 16 °F 15 °F -16 °F (1981)
Degree Days  
Heating Degree Days 40    
Moisture  
Dew Point 23 °F    
Average Humidity 81    
Maximum Humidity 92    
Minimum Humidity 66    
Precipitation  
Precipitation 0.00 in - - ()
Sea Level Pressure  
Sea Level Pressure 30.21 in    
Wind  
Wind Speed 7 mph (SSW)    
Max Wind Speed 14 mph    
Max Gust Speed 20 mph    
Visibility 6 miles    
Events Snow    
Averages and records for this station are not official NWS values.
T = Trace of Precipitation, MM = Missing Value Source: NWS Daily Summary

Daily Weather History Graph

Daily Weather History Graph

Search for Another Location

Airport:

Trip Planner

Search our weather history database for the weather conditions in past years. The results will help you decide how hot, cold, wet, or windy it might be!

Date:

Astronomy

Jan. 05, 2013 Rise Set
Actual Time 8:03 AM EST 5:23 PM EST
Civil Twilight 7:32 AM EST 5:54 PM EST
Nautical Twilight 6:58 AM EST 6:28 PM EST
Astronomical Twilight 6:24 AM EST 7:02 PM EST
Moon 1:07 AM EST (1/5) 12:14 PM EST (1/5)
Length of Visible Light 10h 21m
Length of Day
9h 19m
Last Quarter, 44% of the Moon is Illuminated
Jan 5
Last Quarter
Jan 11
New
Jan 18
First Quarter
Jan 26
Full
Feb 3
Last Quarter

Hourly Weather History & Observations

Time (EST) Temp. Windchill Dew Point Humidity Pressure Visibility Wind Dir Wind Speed Gust Speed Precip Events Conditions
12:53 AM 21.0 °F 12.4 °F 16.0 °F 81% 30.28 in 9.0 mi SSW 6.9 mph - N/A   Clear
1:53 AM 21.0 °F 13.4 °F 16.0 °F 81% 30.29 in 10.0 mi SW 5.8 mph - N/A   Clear
2:53 AM 19.0 °F 13.9 °F 15.1 °F 85% 30.30 in 8.0 mi SSW 3.5 mph - N/A   Clear
3:53 AM 19.0 °F 11.1 °F 14.0 °F 81% 30.30 in 8.0 mi SSW 5.8 mph - N/A   Clear
4:53 AM 19.0 °F 11.1 °F 14.0 °F 81% 30.31 in 7.0 mi SW 5.8 mph - N/A   Clear
5:53 AM 19.0 °F 11.1 °F 15.1 °F 85% 30.32 in 7.0 mi SSW 5.8 mph - N/A   Clear
6:53 AM 18.0 °F - 14.0 °F 84% 30.32 in 7.0 mi Calm Calm - N/A   Clear
7:53 AM 16.0 °F 10.4 °F 12.0 °F 84% 30.32 in 5.0 mi South 3.5 mph - N/A   Clear
8:53 AM 18.0 °F 12.7 °F 16.0 °F 92% 30.32 in 5.0 mi South 3.5 mph - N/A   Clear
9:53 AM 23.0 °F 14.7 °F 17.1 °F 78% 30.33 in 6.0 mi SSW 6.9 mph - N/A   Haze
10:53 AM 26.1 °F 16.8 °F 19.0 °F 75% 30.31 in 7.0 mi SSW 9.2 mph - N/A   Clear
11:53 AM 27.0 °F 19.5 °F 19.9 °F 75% 30.28 in 7.0 mi SSW 6.9 mph - N/A   Clear
12:53 PM 30.0 °F 22.4 °F 21.0 °F 69% 30.25 in 8.0 mi SW 8.1 mph - N/A   Clear
1:53 PM 30.9 °F 22.8 °F 21.9 °F 69% 30.21 in 8.0 mi SSW 9.2 mph - N/A   Clear
2:53 PM 32.0 °F 24.2 °F 21.9 °F 66% 30.18 in 9.0 mi SSW 9.2 mph - N/A   Clear
3:53 PM 33.1 °F 25.5 °F 23.0 °F 66% 30.18 in 9.0 mi SSW 9.2 mph - N/A   Partly Cloudy
4:53 PM 33.1 °F 26.9 °F 24.1 °F 70% 30.16 in 9.0 mi SSW 6.9 mph - N/A   Mostly Cloudy
5:53 PM 33.1 °F 26.1 °F 25.0 °F 72% 30.17 in 10.0 mi SW 8.1 mph - N/A   Overcast
6:53 PM 34.0 °F 26.0 °F 28.0 °F 79% 30.17 in 5.0 mi SW 10.4 mph - 0.00 in Snow Light Snow
6:58 PM 33.8 °F 24.3 °F 28.4 °F 81% 30.14 in 2.0 mi SW 13.8 mph 19.6 mph 0.00 in Snow Light Snow
7:06 PM 33.8 °F 24.3 °F 28.4 °F 81% 30.13 in 1.8 mi SW 13.8 mph - 0.00 in Snow Light Snow
7:38 PM 33.8 °F 26.4 °F 30.2 °F 87% 30.13 in 3.0 mi SW 9.2 mph - 0.00 in Snow Light Snow
7:48 PM 33.8 °F 27.0 °F 30.2 °F 87% 30.13 in 2.5 mi SW 8.1 mph - 0.00 in Snow Light Snow
7:53 PM 33.1 °F 25.5 °F 30.0 °F 89% 30.16 in 3.0 mi SSW 9.2 mph - 0.00 in Snow Light Snow
8:18 PM 33.8 °F 26.4 °F 30.2 °F 87% 30.11 in 2.0 mi SSW 9.2 mph - 0.00 in Snow Light Snow
8:27 PM 33.8 °F 26.4 °F 30.2 °F 87% 30.11 in 3.0 mi SSW 9.2 mph - 0.00 in Snow Light Snow
8:53 PM 33.1 °F 24.9 °F 30.0 °F 89% 30.15 in 6.0 mi SW 10.4 mph 17.3 mph 0.00 in   Overcast
9:53 PM 32.0 °F 23.6 °F 28.9 °F 88% 30.14 in 4.0 mi SW 10.4 mph - 0.00 in Snow Light Snow
10:53 PM 33.1 °F 25.5 °F 30.0 °F 89% 30.12 in 6.0 mi SSW 9.2 mph - 0.00 in   Overcast
11:53 PM 33.1 °F 24.9 °F 30.0 °F 89% 30.10 in 7.0 mi SSW 10.4 mph - N/A   Overcast